Location: Alma
(34.4195°N, 97.6123°W)
Time: 06:36:03
(UTC+00:00)

Hubble Space Telescope - Pass Details

Date: 26 May 2024
Orbit: 511 x 514 km, 28.5° (Epoch: 13 June)

Event Time Altitude Azimuth Distance (km) Brightness Sun altitude
Rises 02:19:31 0° 221° (SW) 2,605 4.4 -9.0°
Reaches altitude 10° 02:22:26 10° 199° (SSW) 1,720 3.2 -9.5°
Maximum altitude 02:24:53 16° 161° (SSE) 1,392 2.4 -9.9°
Enters shadow 02:26:14 14° 137° (SE) 1,499 2.4 -10.2°
